This is the latest recevied weather packets stored in our database for station/object KD8DNS. If no packets are shown the sender has not sent any weather packets the latest 10 day(s).
| Time | Temp. | Humidity | Pressure | Rain* | Wind** | Luminosity | Snow |
|---|---|---|---|---|---|---|---|
| 1788197446 | 33.33° C | 57% | 1022.7 hPa | 0 mm | - | 629 W/m² | - |
| 1788197140 | 32.78° C | 59% | 1022.4 hPa | 0 mm | - | 662 W/m² | - |
| 1788196835 | 32.78° C | 60% | 1022.6 hPa | 0 mm | - | 659 W/m² | - |
| 1788196531 | 32.78° C | 60% | 1022.5 hPa | 0 mm | - | 642 W/m² | - |
| 1788196228 | 32.78° C | 57% | 1022.7 hPa | 0 mm | - | 633 W/m² | - |
| 1788195923 | 32.78° C | 58% | 1022.7 hPa | 0 mm | - | 652 W/m² | - |
| 1788195621 | 32.78° C | 59% | 1022.8 hPa | 0 mm | - | 632 W/m² | - |
| 1788195322 | 32.78° C | 59% | 1022.9 hPa | 0 mm | - | 621 W/m² | - |
| 1788195018 | 32.22° C | 61% | 1022.7 hPa | 0 mm | - | 602 W/m² | - |
| 1788194713 | 32.78° C | 61% | 1022.8 hPa | 0 mm | - | 550 W/m² | - |
| 1788194408 | 32.78° C | 61% | 1022.9 hPa | 0 mm | - | 595 W/m² | - |
| 1788194103 | 32.22° C | 61% | 1022.8 hPa | 0 mm | - | 596 W/m² | - |
| 1788193802 | 32.22° C | 59% | 1023 hPa | 0 mm | - | 592 W/m² | - |
| 1788193498 | 32.22° C | 62% | 1022.6 hPa | 0 mm | - | 614 W/m² | - |
| 1788193195 | 32.22° C | 61% | 1022.8 hPa | 0 mm | - | 570 W/m² | - |
| 1788192893 | 31.67° C | 62% | 1022.8 hPa | 0 mm | - | 583 W/m² | - |
| 1788192588 | 31.67° C | 62% | 1023 hPa | 0 mm | - | 599 W/m² | - |
| 1788192288 | 31.67° C | 65% | 1022.7 hPa | 0 mm | - | 503 W/m² | - |
| 1788191987 | 31.67° C | 63% | 1022.9 hPa | 0 mm | - | 567 W/m² | - |
| 1788191682 | 31.67° C | 62% | 1022.6 hPa | 0 mm | - | 582 W/m² | - |
| 1788191378 | 31.67° C | 67% | 1022.7 hPa | 0 mm | - | 562 W/m² | - |
| 1788191074 | 31.67° C | 66% | 1022.7 hPa | 0 mm | - | 574 W/m² | - |
| 1788190773 | 31.11° C | 65% | 1022.7 hPa | 0 mm | - | 561 W/m² | - |
| 1788190468 | 31.11° C | 66% | 1022.6 hPa | 0 mm | - | 552 W/m² | - |
| 1788190166 | 31.11° C | 68% | 1022.5 hPa | 0 mm | - | 476 W/m² | - |
* Rain latest hour (hover to see other rain measurements)
** Current wind speed in m/s (hover to see current wind gust speed)